Location: Schommer Observatory
(40.5200°N, 74.4500°W)
Time: 06:25:59
(UTC-04:00)

OTV 4 - Visible Passes

Search period start: 23 March 2017 00:00
Search period end: 02 April 2017 00:00
Orbit: 322 x 354 km, 38.0° (Epoch: 14 January)

Date Brightness Start Highest point End Pass type
(mag) Time Alt. Az. Time Alt. Az. Time Alt. Az.
27 Mar 2.8 05:39:36 11° S 05:41:03 15° SSE 05:42:42 10° ESE visible
28 Mar 1.8 05:59:40 11° SW 06:01:54 27° SSE 06:04:20 10° ESE visible
29 Mar 3.2 04:48:25 13° SE 04:48:25 13° SE 04:49:01 10° ESE visible
30 Mar 1.8 05:08:23 28° SSE 05:08:23 28° SSE 05:10:34 10° ESE visible
31 Mar 0.9 05:28:18 34° SW 05:29:02 43° S 05:31:44 10° E visible
01 Apr 0.7 05:48:14 18° WSW 05:50:03 50° S 05:52:47 10° ESE visible
